• In Belarus
  • List of Countries
  • For 7 days
  • Water Temperature
  • Satellite Maps
  • Weather Map
  • Weather Widgets
  • user-avatar
    Login

    Hourly Weather Tibissa

    Today, 20 October, Friday

    Time Temperature Precipitation Wind Pressure Humidity
    00:00 +18°C° 0.1 mm 4 mps 684 mmHg 40%
    01:00 +17°C° 0 mm 4 mps 684 mmHg 45%
    02:00 +17°C° 0.6 mm 3 mps 684 mmHg 51%
    03:00 +16°C° 0.6 mm 3 mps 684 mmHg 57%
    04:00 +14°C° 0.6 mm 3 mps 683 mmHg 63%
    05:00 +15°C° 1 mm 2 mps 683 mmHg 67%
    06:00 +15°C° 1 mm 2 mps 683 mmHg 70%
    07:00 +14°C° 1 mm 1 mps 683 mmHg 74%
    08:00 +14°C° 0.7 mm 1 mps 684 mmHg 75%
    09:00 +15°C° 0.7 mm 2 mps 684 mmHg 75%
    10:00 +15°C° 0.7 mm 2 mps 684 mmHg 75%
    11:00 +16°C° 0.1 mm 2 mps 685 mmHg 70%
    12:00 +17°C° 0.1 mm 3 mps 685 mmHg 65%
    13:00 +18°C° 0.1 mm 3 mps 685 mmHg 60%
    14:00 +18°C° 0.1 mm 4 mps 685 mmHg 61%
    15:00 +18°C° 0.1 mm 4 mps 685 mmHg 61%
    16:00 +18°C° 0.1 mm 4 mps 685 mmHg 62%
    17:00 +17°C° 0.3 mm 4 mps 685 mmHg 66%
    18:00 +17°C° 0.3 mm 4 mps 685 mmHg 70%
    19:00 +15°C° 0.3 mm 4 mps 686 mmHg 75%
    20:00 +15°C° 0.3 mm 4 mps 686 mmHg 77%
    21:00 +14°C° 0.3 mm 4 mps 687 mmHg 79%
    22:00 +14°C° 0.3 mm 4 mps 687 mmHg 82%
    23:00 +14°C° 0.1 mm 5 mps 687 mmHg 83%

    Tomorrow, 21 October, Saturday

    Time Temperature Precipitation Wind Pressure Humidity
    00:00 +14°C° 0.1 mm 5 mps 687 mmHg 83%
    01:00 +14°C° 0.1 mm 5 mps 687 mmHg 84%
    02:00 +14°C° 0.1 mm 5 mps 687 mmHg 85%
    03:00 +14°C° 0.1 mm 5 mps 687 mmHg 85%
    04:00 +14°C° 0.1 mm 5 mps 687 mmHg 85%
    05:00 +14°C° 0 mm 5 mps 687 mmHg 85%
    06:00 +14°C° 0 mm 5 mps 688 mmHg 85%
    07:00 +14°C° 0 mm 5 mps 688 mmHg 85%
    08:00 +14°C° 0 mm 5 mps 688 mmHg 81%
    09:00 +15°C° 0 mm 5 mps 689 mmHg 77%
    10:00 +16°C° 0 mm 5 mps 690 mmHg 74%
    11:00 +17°C° 0 mm 5 mps 690 mmHg 70%
    12:00 +17°C° 0 mm 5 mps 690 mmHg 66%
    13:00 +19°C° 0 mm 4 mps 690 mmHg 62%
    14:00 +19°C° 0 mm 4 mps 690 mmHg 62%
    15:00 +19°C° 0 mm 4 mps 689 mmHg 61%
    16:00 +19°C° 0 mm 4 mps 689 mmHg 61%
    17:00 +19°C° 0 mm 3 mps 689 mmHg 63%
    18:00 +19°C° 0 mm 3 mps 690 mmHg 66%
    19:00 +18°C° 0 mm 2 mps 690 mmHg 69%
    20:00 +18°C° 0 mm 2 mps 690 mmHg 71%
    21:00 +17°C° 0 mm 2 mps 690 mmHg 74%
    22:00 +18°C° 0 mm 1 mps 691 mmHg 77%
    23:00 +16°C° 0 mm 1 mps 690 mmHg 80%

    Day after tomorrow, 22 October, Sunday

    Time Temperature Precipitation Wind Pressure Humidity
    00:00 +16°C° 0 mm 1 mps 690 mmHg 83%
    01:00 +15°C° 0 mm 0 mps 690 mmHg 85%
    02:00 +14°C° 0 mm 0 mps 690 mmHg 87%
    03:00 +14°C° 0 mm 0 mps 689 mmHg 88%
    04:00 +14°C° 0 mm 0 mps 689 mmHg 89%
    05:00 +13°C° 0 mm 0 mps 689 mmHg 89%
    06:00 +13°C° 0 mm 0 mps 689 mmHg 89%
    07:00 +13°C° 0 mm 0 mps 689 mmHg 89%
    08:00 +16°C° 0 mm 1 mps 690 mmHg 80%
    09:00 +18°C° 0 mm 1 mps 690 mmHg 71%
    10:00 +20°C° 0 mm 1 mps 691 mmHg 62%
    11:00 +20°C° 0 mm 2 mps 691 mmHg 58%
    12:00 +21°C° 0 mm 2 mps 690 mmHg 53%
    13:00 +21°C° 0 mm 3 mps 690 mmHg 48%
    14:00 +22°C° 0 mm 3 mps 690 mmHg 48%
    15:00 +22°C° 0 mm 3 mps 689 mmHg 47%
    16:00 +22°C° 0 mm 3 mps 689 mmHg 47%
    17:00 +21°C° 0 mm 3 mps 689 mmHg 51%
    18:00 +20°C° 0 mm 3 mps 689 mmHg 55%
    19:00 +20°C° 0 mm 3 mps 689 mmHg 58%
    20:00 +19°C° 0 mm 3 mps 689 mmHg 63%
    21:00 +18°C° 0 mm 3 mps 690 mmHg 69%
    22:00 +17°C° 0 mm 2 mps 690 mmHg 74%
    23:00 +17°C° 0 mm 2 mps 689 mmHg 77%

    23 October, Monday

    Time Temperature Precipitation Wind Pressure Humidity
    00:00 +16°C° 0 mm 2 mps 689 mmHg 79%
    01:00 +16°C° 0 mm 2 mps 689 mmHg 82%
    02:00 +15°C° 0 mm 2 mps 689 mmHg 83%
    03:00 +15°C° 0 mm 2 mps 688 mmHg 84%
    04:00 +15°C° 0 mm 2 mps 688 mmHg 85%
    05:00 +15°C° 0.1 mm 2 mps 688 mmHg 85%
    06:00 +14°C° 0.1 mm 2 mps 688 mmHg 86%
    07:00 +14°C° 0.1 mm 2 mps 688 mmHg 87%
    08:00 +14°C° 0 mm 3 mps 689 mmHg 80%
    09:00 +15°C° 0 mm 4 mps 689 mmHg 74%
    10:00 +16°C° 0 mm 5 mps 690 mmHg 68%
    11:00 +17°C° 0 mm 5 mps 689 mmHg 64%
    12:00 +17°C° 0 mm 6 mps 689 mmHg 60%
    13:00 +19°C° 0 mm 6 mps 689 mmHg 56%
    14:00 +17°C° 0 mm 7 mps 689 mmHg 55%
    15:00 +17°C° 0 mm 8 mps 689 mmHg 54%
    16:00 +17°C° 0 mm 8 mps 688 mmHg 53%
    17:00 +16°C° 0 mm 8 mps 688 mmHg 57%
    18:00 +15°C° 0 mm 7 mps 688 mmHg 62%
    19:00 +14°C° 0 mm 7 mps 688 mmHg 67%
    20:00 +12°C° 0 mm 7 mps 689 mmHg 71%
    21:00 +12°C° 0 mm 7 mps 689 mmHg 74%
    22:00 +11°C° 0 mm 7 mps 689 mmHg 78%
    23:00 +11°C° 0 mm 7 mps 689 mmHg 79%

    24 October, Tuesday

    Time Temperature Precipitation Wind Pressure Humidity
    00:00 +11°C° 0 mm 7 mps 689 mmHg 80%
    01:00 +11°C° 0 mm 6 mps 689 mmHg 80%
    02:00 +10°C° 0 mm 6 mps 688 mmHg 82%
    03:00 +10°C° 0 mm 6 mps 688 mmHg 83%
    04:00 +10°C° 0 mm 5 mps 688 mmHg 84%
    05:00 +10°C° 0 mm 5 mps 688 mmHg 84%
    06:00 +9°C° 0 mm 5 mps 688 mmHg 85%
    07:00 +10°C° 0 mm 4 mps 688 mmHg 85%
    08:00 +12°C° 0 mm 5 mps 689 mmHg 78%
    09:00 +13°C° 0 mm 5 mps 689 mmHg 70%
    10:00 +14°C° 0 mm 5 mps 689 mmHg 63%
    11:00 +16°C° 0 mm 5 mps 689 mmHg 57%
    12:00 +17°C° 0 mm 5 mps 689 mmHg 51%
    13:00 +19°C° 0 mm 5 mps 689 mmHg 45%
    14:00 +19°C° 0 mm 5 mps 689 mmHg 43%
    15:00 +20°C° 0 mm 6 mps 689 mmHg 41%
    16:00 +20°C° 0 mm 6 mps 688 mmHg 38%
    17:00 +19°C° 0 mm 5 mps 688 mmHg 41%
    18:00 +18°C° 0 mm 4 mps 688 mmHg 45%
    19:00 +17°C° 0 mm 4 mps 688 mmHg 48%
    20:00 +16°C° 0 mm 3 mps 688 mmHg 49%
    21:00 +16°C° 0 mm 3 mps 688 mmHg 51%
    22:00 +14°C° 0 mm 3 mps 688 mmHg 52%
    23:00 +14°C° 0 mm 3 mps 688 mmHg 53%

    25 October, Wednesday

    Time Temperature Precipitation Wind Pressure Humidity
    00:00 +14°C° 0 mm 3 mps 688 mmHg 53%
    01:00 +13°C° 0 mm 3 mps 688 mmHg 53%
    02:00 +13°C° 0 mm 3 mps 687 mmHg 54%
    03:00 +13°C° 0 mm 3 mps 687 mmHg 55%
    04:00 +12°C° 0 mm 3 mps 687 mmHg 56%
    05:00 +12°C° 0 mm 3 mps 687 mmHg 57%
    06:00 +12°C° 0 mm 3 mps 687 mmHg 59%
    07:00 +12°C° 0 mm 3 mps 687 mmHg 60%
    08:00 +13°C° 0 mm 4 mps 688 mmHg 60%
    09:00 +14°C° 0 mm 4 mps 689 mmHg 60%
    10:00 +16°C° 0 mm 5 mps 689 mmHg 60%
    11:00 +17°C° 0 mm 5 mps 689 mmHg 57%
    12:00 +19°C° 0 mm 5 mps 689 mmHg 54%
    13:00 +19°C° 0 mm 5 mps 689 mmHg 51%
    14:00 +20°C° 0 mm 5 mps 689 mmHg 49%
    15:00 +20°C° 0 mm 6 mps 689 mmHg 47%
    16:00 +20°C° 0 mm 6 mps 689 mmHg 45%
    17:00 +19°C° 0 mm 6 mps 689 mmHg 49%
    18:00 +17°C° 0 mm 5 mps 689 mmHg 53%
    19:00 +15°C° 0 mm 5 mps 689 mmHg 57%
    20:00 +14°C° 0 mm 4 mps 689 mmHg 60%
    21:00 +14°C° 0 mm 4 mps 690 mmHg 63%
    22:00 +13°C° 0 mm 4 mps 690 mmHg 66%
    23:00 +12°C° 0 mm 3 mps 690 mmHg 67%
    Show more